Time,TemperatureF,DewpointF,PressureIn,WindDirection,WindDirectionDegrees,WindSpeedMPH,WindSpeedGustMPH,Humidity,HourlyPrecipIn,Conditions,Clouds,dailyrainin,SoftwareType,DateUTC
2013-02-28 00:02:00,36.0,31.0,-100.00,WSW,255,3.0,9.0,81,0.00,,,-99.99,,2013-02-28 05:02:00,
2013-02-28 00:11:00,36.0,31.0,-100.00,SW,235,6.0,12.0,81,0.00,,,-99.99,,2013-02-28 05:11:00,
2013-02-28 00:22:00,36.0,31.0,-100.00,WSW,255,6.0,11.0,80,0.00,,,-99.99,,2013-02-28 05:22:00,
2013-02-28 00:32:00,36.0,31.0,-100.00,WSW,250,5.0,11.0,80,0.00,,,-99.99,,2013-02-28 05:32:00,
2013-02-28 00:42:00,36.0,31.0,-100.00,SSW,200,4.0,11.0,79,0.00,,,-99.99,,2013-02-28 05:42:00,
2013-02-28 00:52:00,36.0,31.0,-100.00,SW,215,4.0,10.0,79,0.00,,,-99.99,,2013-02-28 05:52:00,
2013-02-28 01:01:00,36.0,31.0,-100.00,SW,215,5.0,9.0,79,0.00,,,-99.99,,2013-02-28 06:01:00,
2013-02-28 01:11:00,36.0,30.0,-100.00,WSW,245,6.0,12.0,79,0.00,,,-99.99,,2013-02-28 06:11:00,
2013-02-28 01:22:00,36.0,31.0,-100.00,SSW,205,4.0,8.0,79,0.00,,,-99.99,,2013-02-28 06:22:00,
2013-02-28 01:32:00,36.0,31.0,-100.00,WSW,245,4.0,9.0,79,0.00,,,-99.99,,2013-02-28 06:32:00,
2013-02-28 01:42:00,36.0,31.0,-100.00,WSW,255,4.0,10.0,79,0.00,,,-99.99,,2013-02-28 06:42:00,
2013-02-28 01:52:00,36.0,30.0,-100.00,SW,215,4.0,12.0,79,0.00,,,-99.99,,2013-02-28 06:52:00,
2013-02-28 02:01:00,36.0,30.0,-100.00,WSW,245,5.0,7.0,79,0.00,,,-99.99,,2013-02-28 07:01:00,
2013-02-28 02:11:00,36.0,30.0,-100.00,WSW,245,5.0,7.0,79,0.00,,,-99.99,,2013-02-28 07:11:00,
2013-02-28 02:21:00,36.0,30.0,-100.00,WSW,245,5.0,7.0,79,0.00,,,-99.99,,2013-02-28 07:21:00,
2013-02-28 02:32:00,36.0,30.0,-100.00,WSW,245,5.0,7.0,79,0.00,,,-99.99,,2013-02-28 07:32:00,
2013-02-28 02:42:00,36.0,30.0,-100.00,WSW,245,5.0,7.0,79,0.00,,,-99.99,,2013-02-28 07:42:00,
2013-02-28 03:12:00,36.0,31.0,-100.00,WSW,240,7.0,10.0,82,0.00,,,-99.99,,2013-02-28 08:12:00,
2013-02-28 03:22:00,36.0,31.0,-100.00,WSW,240,7.0,10.0,82,0.00,,,-99.99,,2013-02-28 08:22:00,
2013-02-28 03:32:00,35.0,30.0,-100.00,WSW,250,6.0,9.0,82,0.00,,,-99.99,,2013-02-28 08:32:00,
2013-02-28 03:42:00,35.0,30.0,-100.00,West,270,5.0,11.0,81,0.00,,,-99.99,,2013-02-28 08:42:00,
2013-02-28 03:52:00,35.0,30.0,-100.00,WSW,255,7.0,11.0,80,0.00,,,-99.99,,2013-02-28 08:52:00,
2013-02-28 04:03:00,35.0,29.0,-100.00,WSW,255,7.0,11.0,79,0.00,,,-99.99,,2013-02-28 09:03:00,
2013-02-28 04:11:00,35.0,29.0,-100.00,West,270,6.0,10.0,78,0.00,,,-99.99,,2013-02-28 09:11:00,
2013-02-28 04:22:00,35.0,29.0,-100.00,West,260,6.0,12.0,77,0.00,,,-99.99,,2013-02-28 09:22:00,
2013-02-28 04:32:00,35.0,29.0,-100.00,West,270,5.0,13.0,76,0.00,,,-99.99,,2013-02-28 09:32:00,
2013-02-28 04:42:00,35.0,28.0,-100.00,WSW,255,7.0,12.0,75,0.00,,,-99.99,,2013-02-28 09:42:00,
2013-02-28 04:52:00,35.0,28.0,-100.00,West,260,5.0,10.0,75,0.00,,,-99.99,,2013-02-28 09:52:00,
2013-02-28 05:02:00,35.0,28.0,-100.00,WSW,255,4.0,9.0,75,0.00,,,-99.99,,2013-02-28 10:02:00,
2013-02-28 05:11:00,35.0,28.0,-100.00,West,260,7.0,11.0,74,0.00,,,-99.99,,2013-02-28 10:11:00,
2013-02-28 05:22:00,35.0,28.0,-100.00,WSW,245,7.0,15.0,73,0.00,,,-99.99,,2013-02-28 10:22:00,
2013-02-28 05:32:00,35.0,28.0,-100.00,WSW,245,7.0,12.0,73,0.00,,,-99.99,,2013-02-28 10:32:00,
2013-02-28 05:42:00,35.0,28.0,-100.00,WSW,250,5.0,12.0,73,0.00,,,-99.99,,2013-02-28 10:42:00,
2013-02-28 05:52:00,35.0,28.0,-100.00,WSW,240,5.0,9.0,74,0.00,,,-99.99,,2013-02-28 10:52:00,
2013-02-28 06:02:00,35.0,28.0,-100.00,WSW,240,6.0,11.0,74,0.00,,,-99.99,,2013-02-28 11:02:00,
2013-02-28 06:11:00,35.0,28.0,-100.00,SW,235,6.0,12.0,74,0.00,,,-99.99,,2013-02-28 11:11:00,
2013-02-28 06:22:00,35.0,28.0,-100.00,WSW,250,6.0,12.0,76,0.00,,,-99.99,,2013-02-28 11:22:00,
2013-02-28 06:32:00,35.0,29.0,-100.00,WSW,250,7.0,13.0,77,0.00,,,-99.99,,2013-02-28 11:32:00,
2013-02-28 06:42:00,35.0,29.0,-100.00,WSW,255,6.0,11.0,78,0.00,,,-99.99,,2013-02-28 11:42:00,
2013-02-28 06:52:00,34.0,29.0,-100.00,WSW,245,6.0,11.0,80,0.00,,,-99.99,,2013-02-28 11:52:00,
2013-02-28 07:02:00,34.0,29.0,-100.00,West,260,4.0,9.0,82,0.00,,,-99.99,,2013-02-28 12:02:00,
2013-02-28 07:11:00,34.0,29.0,-100.00,West,265,6.0,11.0,82,0.00,,,-99.99,,2013-02-28 12:11:00,
2013-02-28 07:22:00,34.0,29.0,-100.00,NW,305,6.0,11.0,83,0.00,,,-99.99,,2013-02-28 12:22:00,
2013-02-28 07:32:00,34.0,29.0,-100.00,West,270,6.0,12.0,82,0.00,,,-99.99,,2013-02-28 12:32:00,
2013-02-28 07:42:00,34.0,29.0,-100.00,West,275,6.0,9.0,82,0.00,,,-99.99,,2013-02-28 12:42:00,
2013-02-28 07:52:00,34.0,30.0,-100.00,WSW,255,5.0,9.0,82,0.00,,,-99.99,,2013-02-28 12:52:00,
2013-02-28 08:02:00,34.0,30.0,-100.00,SW,235,5.0,8.0,82,0.00,,,-99.99,,2013-02-28 13:02:00,
2013-02-28 08:11:00,34.0,30.0,-100.00,West,260,6.0,9.0,82,0.00,,,-99.99,,2013-02-28 13:11:00,
2013-02-28 08:22:00,34.0,29.0,-100.00,SW,235,5.0,16.0,82,0.00,,,-99.99,,2013-02-28 13:22:00,
2013-02-28 08:32:00,34.0,29.0,-100.00,WSW,245,6.0,11.0,81,0.00,,,-99.99,,2013-02-28 13:32:00,
2013-02-28 08:42:00,34.0,29.0,-100.00,WSW,250,7.0,12.0,81,0.00,,,-99.99,,2013-02-28 13:42:00,
2013-02-28 08:52:00,35.0,29.0,-100.00,West,260,5.0,14.0,81,0.00,,,-99.99,,2013-02-28 13:52:00,
2013-02-28 09:02:00,35.0,29.0,-100.00,WSW,250,5.0,11.0,80,0.00,,,-99.99,,2013-02-28 14:02:00,
2013-02-28 09:11:00,35.0,29.0,-100.00,WSW,250,6.0,12.0,80,0.00,,,-99.99,,2013-02-28 14:11:00,
2013-02-28 09:22:00,35.0,29.0,-100.00,West,260,6.0,11.0,80,0.00,,,-99.99,,2013-02-28 14:22:00,
2013-02-28 09:32:00,35.0,29.0,-100.00,WSW,250,7.0,11.0,80,0.00,,,-99.99,,2013-02-28 14:32:00,
2013-02-28 09:42:00,35.0,29.0,-100.00,WSW,255,7.0,12.0,80,0.00,,,-99.99,,2013-02-28 14:42:00,
2013-02-28 09:52:00,35.0,29.0,-100.00,WSW,245,7.0,13.0,80,0.00,,,-99.99,,2013-02-28 14:52:00,
2013-02-28 10:02:00,35.0,29.0,-100.00,WSW,255,11.0,16.0,79,0.00,,,-99.99,,2013-02-28 15:02:00,
2013-02-28 10:11:00,35.0,29.0,-100.00,West,260,7.0,14.0,78,0.00,,,-99.99,,2013-02-28 15:11:00,
2013-02-28 10:22:00,35.0,29.0,-100.00,West,265,6.0,14.0,79,0.00,,,-99.99,,2013-02-28 15:22:00,
2013-02-28 10:32:00,35.0,29.0,-100.00,WSW,240,6.0,10.0,78,0.00,,,-99.99,,2013-02-28 15:32:00,
2013-02-28 10:42:00,35.0,29.0,-100.00,WSW,255,6.0,11.0,79,0.00,,,-99.99,,2013-02-28 15:42:00,
2013-02-28 10:52:00,35.0,30.0,-100.00,WSW,255,6.0,11.0,79,0.00,,,-99.99,,2013-02-28 15:52:00,
2013-02-28 11:02:00,35.0,30.0,-100.00,WSW,255,4.0,11.0,79,0.00,,,-99.99,,2013-02-28 16:02:00,
2013-02-28 11:12:00,36.0,30.0,-100.00,WSW,255,5.0,12.0,78,0.00,,,-99.99,,2013-02-28 16:12:00,
2013-02-28 11:22:00,36.0,29.0,-100.00,West,265,6.0,13.0,78,0.00,,,-99.99,,2013-02-28 16:22:00,
2013-02-28 11:32:00,36.0,30.0,-100.00,West,270,5.0,13.0,78,0.00,,,-99.99,,2013-02-28 16:32:00,
2013-02-28 11:42:00,36.0,29.0,-100.00,WSW,245,7.0,12.0,77,0.00,,,-99.99,,2013-02-28 16:42:00,
2013-02-28 11:52:00,36.0,29.0,-100.00,WSW,250,7.0,11.0,77,0.00,,,-99.99,,2013-02-28 16:52:00,
2013-02-28 12:02:00,36.0,29.0,-100.00,West,260,6.0,12.0,77,0.00,,,-99.99,,2013-02-28 17:02:00,
2013-02-28 12:12:00,36.0,29.0,-100.00,West,265,6.0,12.0,76,0.00,,,-99.99,,2013-02-28 17:12:00,
2013-02-28 12:22:00,36.0,30.0,-100.00,West,270,4.0,12.0,77,0.00,,,-99.99,,2013-02-28 17:22:00,
2013-02-28 12:32:00,36.0,30.0,-100.00,West,270,6.0,11.0,77,0.00,,,-99.99,,2013-02-28 17:32:00,
2013-02-28 12:42:00,36.0,29.0,-100.00,WSW,250,6.0,16.0,77,0.00,,,-99.99,,2013-02-28 17:42:00,
2013-02-28 12:52:00,36.0,30.0,-100.00,WSW,245,5.0,14.0,77,0.00,,,-99.99,,2013-02-28 17:52:00,
2013-02-28 13:02:00,36.0,30.0,-100.00,WSW,255,6.0,12.0,77,0.00,,,-99.99,,2013-02-28 18:02:00,
2013-02-28 13:11:00,36.0,30.0,-100.00,West,260,8.0,14.0,79,0.00,,,-99.99,,2013-02-28 18:11:00,
2013-02-28 13:22:00,36.0,30.0,-100.00,WSW,250,7.0,16.0,79,0.00,,,-99.99,,2013-02-28 18:22:00,
2013-02-28 13:32:00,36.0,30.0,-100.00,WNW,300,7.0,12.0,78,0.00,,,-99.99,,2013-02-28 18:32:00,
2013-02-28 13:42:00,36.0,30.0,-100.00,West,260,8.0,12.0,79,0.55,,,-99.99,,2013-02-28 18:42:00,
2013-02-28 13:52:00,36.0,31.0,-100.00,West,265,4.0,10.0,80,0.00,,,-99.99,,2013-02-28 18:52:00,
2013-02-28 14:02:00,36.0,31.0,-100.00,West,265,6.0,12.0,80,0.00,,,-99.99,,2013-02-28 19:02:00,
2013-02-28 14:11:00,36.0,31.0,-100.00,WSW,255,6.0,8.0,80,0.00,,,-99.99,,2013-02-28 19:11:00,
2013-02-28 14:22:00,36.0,31.0,-100.00,West,270,5.0,9.0,81,0.00,,,-99.99,,2013-02-28 19:22:00,
2013-02-28 14:32:00,36.0,31.0,-100.00,WSW,255,6.0,11.0,80,0.00,,,-99.99,,2013-02-28 19:32:00,
2013-02-28 14:42:00,36.0,31.0,-100.00,West,260,5.0,16.0,80,0.00,,,-99.99,,2013-02-28 19:42:00,
2013-02-28 14:52:00,36.0,31.0,-100.00,West,270,6.0,10.0,81,0.00,,,-99.99,,2013-02-28 19:52:00,
2013-02-28 15:01:00,36.0,31.0,-100.00,WSW,255,6.0,11.0,81,0.00,,,-99.99,,2013-02-28 20:01:00,
2013-02-28 15:12:00,37.0,31.0,-100.00,West,270,5.0,13.0,81,0.00,,,-99.99,,2013-02-28 20:12:00,
2013-02-28 15:22:00,37.0,31.0,-100.00,WSW,255,5.0,12.0,81,0.00,,,-99.99,,2013-02-28 20:22:00,
2013-02-28 15:32:00,37.0,31.0,-100.00,West,280,5.0,10.0,81,0.00,,,-99.99,,2013-02-28 20:32:00,
2013-02-28 15:42:00,37.0,32.0,-100.00,West,260,6.0,11.0,82,0.55,,,-99.99,,2013-02-28 20:42:00,
2013-02-28 15:52:00,37.0,32.0,-100.00,West,275,6.0,11.0,82,0.55,,,-99.99,,2013-02-28 20:52:00,
2013-02-28 16:02:00,37.0,32.0,-100.00,West,260,4.0,9.0,82,0.00,,,-99.99,,2013-02-28 21:02:00,
2013-02-28 16:11:00,36.0,32.0,-100.00,WSW,255,7.0,11.0,83,0.00,,,-99.99,,2013-02-28 21:11:00,
2013-02-28 16:22:00,37.0,32.0,-100.00,West,275,3.0,11.0,83,0.00,,,-99.99,,2013-02-28 21:22:00,
2013-02-28 16:32:00,37.0,32.0,-100.00,West,270,4.0,9.0,83,0.00,,,-99.99,,2013-02-28 21:32:00,
2013-02-28 16:42:00,37.0,32.0,-100.00,WSW,255,6.0,10.0,83,0.00,,,-99.99,,2013-02-28 21:42:00,
2013-02-28 16:52:00,37.0,32.0,-100.00,WSW,255,6.0,9.0,84,0.00,,,-99.99,,2013-02-28 21:52:00,
2013-02-28 17:01:00,37.0,32.0,-100.00,West,280,4.0,7.0,84,0.00,,,-99.99,,2013-02-28 22:01:00,
2013-02-28 17:11:00,37.0,32.0,-100.00,West,270,4.0,9.0,84,0.00,,,-99.99,,2013-02-28 22:11:00,
2013-02-28 17:22:00,37.0,32.0,-100.00,WSW,255,3.0,7.0,84,0.00,,,-99.99,,2013-02-28 22:22:00,
2013-02-28 17:32:00,37.0,33.0,-100.00,WNW,290,2.0,6.0,84,0.00,,,-99.99,,2013-02-28 22:32:00,
2013-02-28 17:42:00,37.0,32.0,-100.00,WSW,255,4.0,7.0,83,0.00,,,-99.99,,2013-02-28 22:42:00,
2013-02-28 17:52:00,37.0,32.0,-100.00,West,265,6.0,9.0,84,0.00,,,-99.99,,2013-02-28 22:52:00,
2013-02-28 18:01:00,37.0,32.0,-100.00,WSW,255,5.0,8.0,84,0.00,,,-99.99,,2013-02-28 23:01:00,
2013-02-28 18:11:00,37.0,32.0,-100.00,West,280,3.0,9.0,84,0.00,,,-99.99,,2013-02-28 23:11:00,
2013-02-28 18:22:00,37.0,33.0,-100.00,WSW,255,4.0,6.0,84,0.00,,,-99.99,,2013-02-28 23:22:00,
2013-02-28 18:32:00,37.0,33.0,-100.00,WSW,250,4.0,9.0,85,0.00,,,-99.99,,2013-02-28 23:32:00,
2013-02-28 18:42:00,37.0,33.0,-100.00,WSW,240,3.0,7.0,85,0.00,,,-99.99,,2013-02-28 23:42:00,
2013-02-28 18:52:00,37.0,33.0,-100.00,WSW,240,4.0,7.0,85,0.00,,,-99.99,,2013-02-28 23:52:00,
2013-02-28 19:02:00,36.0,33.0,-100.00,West,265,4.0,7.0,86,0.00,,,-99.99,,2013-03-01 00:02:00,
2013-02-28 19:11:00,37.0,33.0,-100.00,WSW,250,3.0,6.0,86,0.00,,,-99.99,,2013-03-01 00:11:00,
2013-02-28 19:22:00,37.0,33.0,-100.00,WNW,290,3.0,7.0,86,0.00,,,-99.99,,2013-03-01 00:22:00,
2013-02-28 19:32:00,37.0,33.0,-100.00,West,270,3.0,6.0,87,0.00,,,-99.99,,2013-03-01 00:32:00,
2013-02-28 19:42:00,36.0,33.0,-100.00,West,260,4.0,9.0,87,0.00,,,-99.99,,2013-03-01 00:42:00,
2013-02-28 19:51:00,36.0,33.0,-100.00,WNW,295,4.0,7.0,87,0.00,,,-99.99,,2013-03-01 00:51:00,
2013-02-28 20:01:00,36.0,33.0,-100.00,West,260,4.0,7.0,88,0.00,,,-99.99,,2013-03-01 01:01:00,
2013-02-28 20:11:00,36.0,33.0,-100.00,WNW,290,3.0,7.0,88,0.00,,,-99.99,,2013-03-01 01:11:00,
2013-02-28 20:21:00,36.0,33.0,-100.00,WSW,250,2.0,7.0,88,0.00,,,-99.99,,2013-03-01 01:21:00,
2013-02-28 20:32:00,36.0,33.0,-100.00,West,265,2.0,6.0,88,0.00,,,-99.99,,2013-03-01 01:32:00,
2013-02-28 20:42:00,36.0,33.0,-100.00,West,275,2.0,6.0,89,0.00,,,-99.99,,2013-03-01 01:42:00,
2013-02-28 20:51:00,36.0,33.0,-100.00,West,265,2.0,6.0,89,0.00,,,-99.99,,2013-03-01 01:51:00,
2013-02-28 21:01:00,36.0,33.0,-100.00,West,270,1.0,5.0,89,0.00,,,-99.99,,2013-03-01 02:01:00,
2013-02-28 21:11:00,36.0,34.0,-100.00,WNW,295,0.0,4.0,89,0.00,,,-99.99,,2013-03-01 02:11:00,
2013-02-28 21:21:00,36.0,34.0,-100.00,WSW,255,1.0,2.0,89,0.00,,,-99.99,,2013-03-01 02:21:00,
2013-02-28 21:32:00,37.0,34.0,-100.00,WNW,285,1.0,3.0,89,0.00,,,-99.99,,2013-03-01 02:32:00,
2013-02-28 21:42:00,36.0,34.0,-100.00,NW,305,2.0,4.0,90,0.00,,,-99.99,,2013-03-01 02:42:00,
2013-02-28 21:52:00,36.0,34.0,-100.00,West,270,1.0,4.0,90,0.00,,,-99.99,,2013-03-01 02:52:00,
2013-02-28 22:02:00,37.0,34.0,-100.00,WNW,300,1.0,3.0,90,0.00,,,-99.99,,2013-03-01 03:02:00,
2013-02-28 22:11:00,36.0,34.0,-100.00,WNW,300,3.0,6.0,90,0.00,,,-99.99,,2013-03-01 03:11:00,
2013-02-28 22:21:00,36.0,34.0,-100.00,West,275,1.0,4.0,90,0.00,,,-99.99,,2013-03-01 03:21:00,
2013-02-28 22:32:00,36.0,34.0,-100.00,WNW,290,1.0,3.0,90,0.00,,,-99.99,,2013-03-01 03:32:00,
2013-02-28 22:42:00,36.0,34.0,-100.00,West,275,1.0,3.0,90,0.00,,,-99.99,,2013-03-01 03:42:00,
2013-02-28 22:51:00,36.0,34.0,-100.00,West,270,1.0,4.0,90,0.00,,,-99.99,,2013-03-01 03:51:00,
2013-02-28 23:01:00,36.0,34.0,-100.00,NW,305,1.0,3.0,90,0.00,,,-99.99,,2013-03-01 04:01:00,
2013-02-28 23:11:00,36.0,34.0,-100.00,NW,305,0.0,4.0,90,0.00,,,-99.99,,2013-03-01 04:11:00,
2013-02-28 23:21:00,36.0,34.0,-100.00,WNW,285,1.0,2.0,90,0.00,,,-99.99,,2013-03-01 04:21:00,
2013-02-28 23:32:00,36.0,34.0,-100.00,NW,310,1.0,6.0,90,0.00,,,-99.99,,2013-03-01 04:32:00,
2013-02-28 23:42:00,36.0,34.0,-100.00,NW,310,0.0,3.0,90,0.00,,,-99.99,,2013-03-01 04:42:00,
2013-02-28 23:52:00,36.0,34.0,-100.00,NW,305,2.0,4.0,90,0.00,,,-99.99,,2013-03-01 04:52:00,